Martinsburg, WV

11:21 PM EST on January 19, 2017 (GMT -0500)
Eastern W Va Regional-Shepherd

Weather History for KMRB - February, 2013

Change the Weather History Date:

Wednesday, February 27, 2013

  Actual Average Record
Temperature  
Mean Temperature 45 °F 36 °F  
Max Temperature 53 °F 47 °F 75 °F (1932)
Min Temperature 37 °F 27 °F 5 °F (1934)
Degree Days  
Heating Degree Days 20 29  
Month to date heating degree days 833 846  
Since 1 July heating degree days 3609 3929  
Cooling Degree Days 0 0  
Month to date cooling degree days 0 0  
Year to date cooling degree days 0 0  
Moisture  
Dew Point 34 °F    
Average Humidity 68    
Maximum Humidity 92    
Minimum Humidity 44    
Precipitation  
Precipitation 0.03 in 0.09 in 1.11 in (1958)
Month to date precipitation 1.42 2.25  
Year to date precipitation 4.82 4.69  
Sea Level Pressure  
Sea Level Pressure 29.64 in    
Wind  
Wind Speed 9 mph (WNW)    
Max Wind Speed 28 mph    
Max Gust Speed 38 mph    
Visibility 8 miles    
Events Rain    
T = Trace of Precipitation, MM = Missing Value Source: NWS Daily Summary

Daily Weather History Graph

Daily Weather History Graph

Search for Another Location

Airport or City:

Trip Planner

Search our weather history database for the weather conditions in past years. The results will help you decide how hot, cold, wet, or windy it might be!

Date:

Astronomy

Feb. 27, 2013 Rise Set
Actual Time 6:47 AM EST 6:02 PM EST
Civil Twilight 6:20 AM EST 6:29 PM EST
Nautical Twilight 5:49 AM EST 7:00 PM EST
Astronomical Twilight 5:18 AM EST 7:31 PM EST
Moon 8:20 PM EST (2/27) 7:22 AM EST (2/27)
Length of Visible Light 12h 09m
Length of Day
11h 15m
Waning Gibbous, 96% of the Moon is Illuminated
Feb 27
Waning Gibbous
Mar 4
Last Quarter
Mar 11
New
Mar 19
First Quarter
Mar 27
Full

Hourly Weather History & Observations

Time (EST) Temp. Windchill Dew Point Humidity Pressure Visibility Wind Dir Wind Speed Gust Speed Precip Events Conditions
12:12 AM 37.4 °F 29.8 °F 35.6 °F 93% 29.65 in 3.0 mi North 11.5 mph - 0.01 in Rain Light Rain
12:53 AM 37.0 °F 31.0 °F 35.1 °F 93% 29.64 in 4.0 mi North 8.1 mph 20.7 mph 0.01 in   Overcast
1:06 AM 37.4 °F 30.3 °F 35.6 °F 93% 29.62 in 2.5 mi North 10.4 mph - 0.01 in Rain Light Rain
1:16 AM 37.4 °F 29.8 °F 35.6 °F 93% 29.62 in 4.0 mi North 11.5 mph - 0.01 in   Overcast
1:53 AM 37.0 °F 28.9 °F 35.1 °F 93% 29.60 in 4.0 mi NNE 12.7 mph - 0.01 in   Overcast
2:53 AM 37.0 °F 31.0 °F 35.1 °F 93% 29.59 in 5.0 mi NNW 8.1 mph - N/A   Overcast
3:43 AM 37.4 °F 32.8 °F 35.6 °F 93% 29.58 in 2.5 mi NW 5.8 mph - 0.00 in Rain Light Rain
3:53 AM 37.9 °F 34.4 °F 36.0 °F 93% 29.59 in 3.0 mi North 4.6 mph - 0.00 in   Overcast
4:53 AM 37.0 °F 33.3 °F 35.1 °F 93% 29.59 in 5.0 mi NNW 4.6 mph - 0.01 in   Overcast
5:53 AM 37.9 °F 33.5 °F 35.1 °F 89% 29.60 in 10.0 mi West 5.8 mph - N/A   Overcast
6:16 AM 37.4 °F 33.8 °F 35.6 °F 93% 29.59 in 10.0 mi NW 4.6 mph - N/A   Overcast
6:53 AM 37.9 °F 34.4 °F 35.1 °F 89% 29.61 in 10.0 mi NW 4.6 mph - N/A   Overcast
7:37 AM 37.4 °F - 35.6 °F 93% 29.61 in 10.0 mi Calm Calm - N/A   Overcast
7:53 AM 37.9 °F - 35.1 °F 89% 29.63 in 10.0 mi Calm Calm - N/A   Overcast
8:40 AM 39.2 °F - 35.6 °F 87% 29.63 in 10.0 mi Calm Calm - N/A   Overcast
8:53 AM 39.9 °F - 36.0 °F 86% 29.65 in 10.0 mi Calm Calm - N/A   Overcast
9:07 AM 39.2 °F - 37.4 °F 93% 29.64 in 10.0 mi Calm Calm - N/A   Overcast
9:36 AM 41.0 °F 39.0 °F 37.4 °F 87% 29.64 in 10.0 mi SSW 3.5 mph - N/A   Scattered Clouds
10:53 AM 48.9 °F - 37.9 °F 66% 29.64 in 10.0 mi West 6.9 mph - N/A   Scattered Clouds
11:53 AM 52.0 °F - 33.1 °F 49% 29.64 in 10.0 mi WSW 20.7 mph 29.9 mph N/A   Scattered Clouds
12:53 PM 52.0 °F - 32.0 °F 47% 29.64 in 10.0 mi West 21.9 mph 26.5 mph N/A   Clear
1:53 PM 51.1 °F - 30.9 °F 46% 29.65 in 10.0 mi West 17.3 mph 27.6 mph N/A   Mostly Cloudy
2:53 PM 50.0 °F - 30.9 °F 48% 29.66 in 10.0 mi WSW 19.6 mph 23.0 mph N/A   Overcast
3:53 PM 48.9 °F - 30.0 °F 48% 29.66 in 10.0 mi West 16.1 mph - N/A   Overcast
4:53 PM 48.0 °F - 30.9 °F 52% 29.67 in 10.0 mi WSW 10.4 mph - N/A   Overcast
5:53 PM 46.9 °F - 30.9 °F 54% 29.68 in 10.0 mi West 8.1 mph - N/A   Overcast
6:53 PM 46.0 °F 41.4 °F 30.9 °F 56% 29.69 in 10.0 mi West 9.2 mph - N/A   Overcast
7:53 PM 44.1 °F 41.5 °F 32.0 °F 63% 29.70 in 10.0 mi WSW 4.6 mph - N/A   Overcast
9:53 PM 44.1 °F - 30.9 °F 60% 29.68 in 10.0 mi Calm Calm - N/A   Overcast
10:53 PM 43.0 °F 40.3 °F 30.9 °F 62% 29.67 in 10.0 mi NW 4.6 mph - N/A   Overcast
11:53 PM 44.1 °F 40.1 °F 32.0 °F 63% 29.66 in 10.0 mi West 6.9 mph - N/A   Overcast